Tracking 29892 objects as of 21-Nov-2024
HD Live streaming from Space Station
objects crossing your sky now

CZ-4B R/B

Track CZ-4B R/B now!
10-day predictions


NORAD ID: 46481
Int'l Code: 2020-067D
Perigee: 349.5 km
Apogee: 428.0 km
Inclination: 98.0 °
Period: 92.2 minutes
Semi major axis: 6759 km
RCS: Unknown
Launch date: September 27, 2020
Source: People's Republic of China (PRC)
Launch site: Taiyaun Space Center, China (TSC)

Note: This is a ROCKET BODY
Your satellite tracking list
Your tracking list is empty




NASA's NSSDC Master Catalog

Two Line Element Set (TLE):
1 46481U 20067D   24326.08282773  .00098433  00000-0  10251-2 0  9990
2 46481  98.0103 147.4221 0058078 189.6212 170.3937 15.62087438230283
Source of the keplerian elements: AFSPC